カタログに戻る

RS95S

QMR-KWT-2

運用中アマチュア無線SSO
NORAD 67291·PAYLOAD·🇰🇼 Kuwait

打ち上げ Dec 28, 2025 から Vostochny Cosmodrome

Loading…

次のパス (今後24時間)

TLE

最新Source: AMSAT

元期: Sep 13, 2026, 11:06 UTC

1 67291U 25313AV  26256.46305240  .00011024  00000-0  40121-3 0  9993
2 67291  97.3861 330.8513 0009260  49.9472 310.2578 15.28360312 39465

AllMySatでRS95Sをリアルタイム追跡

Download on the App Store